DateTimeUTC,F1_A11,F1_S11,BsB_S11,BsG_S11,BsR_S11,BbsB_S11,BbsG_S11,BbsR_S11,BaB_A11,BaG_A11,BaR_A11,Tu_S11,T_S11,Uu_S11,U_S11,P_S11,T1_A11
2021-07-27T22:00:00Z,00000200,20000000,,,,,,,-000.35,-000.21,0000.12,20.0,26.4,16.3,11.1,0687.5,31.1
2021-07-27T22:01:00Z,00000200,20000000,,,,,,,-000.00,0000.03,0000.04,20.0,26.4,16.3,11.1,0687.5,31.1
2021-07-27T22:02:00Z,00000200,20000000,,,,,,,-000.31,-000.33,-000.25,20.0,26.4,16.3,11.1,0687.5,31.1
2021-07-27T22:03:00Z,00000200,60000000,,,,,,,0001.60,0001.49,0001.01,20.0,26.4,16.3,11.1,0687.5,31.1
2021-07-27T22:04:00Z,00000200,40000000,0013.95,0010.02,0007.38,0001.54,0001.32,0000.84,0001.96,0001.88,0001.63,20.1,26.2,16.3,11.3,0688.5,31.1
2021-07-27T22:05:00Z,00000200,00000000,0014.28,0011.68,0007.73,0001.09,0001.55,0000.77,0002.70,0002.24,0001.63,20.1,26.2,16.3,11.4,0688.5,31.1
2021-07-27T22:06:00Z,00000200,00000000,0013.92,0011.41,0007.57,0001.67,0001.74,0001.07,0001.84,0001.76,0001.88,20.1,26.2,16.4,11.4,0688.5,31.1
2021-07-27T22:07:00Z,00000200,00000000,0014.71,0011.70,0008.32,0001.90,0001.28,0001.25,0002.06,0002.25,0001.57,20.1,26.2,16.5,11.4,0688.6,31.2
2021-07-27T22:08:00Z,00000200,00000000,0013.87,0011.68,0007.96,0001.91,0001.62,0000.96,0002.50,0001.79,0001.58,20.1,26.2,16.5,11.4,0688.5,31.1
2021-07-27T22:09:00Z,00000200,00000000,0015.00,0011.21,0007.56,0001.88,0001.53,0001.11,0001.88,0002.30,0001.54,20.1,26.2,16.5,11.5,0688.5,31.1
2021-07-27T22:10:00Z,00000200,00000000,0013.79,0010.85,0007.43,0001.78,0001.59,0001.07,0002.24,0001.57,0001.51,20.1,26.2,16.5,11.4,0688.5,31.1
2021-07-27T22:11:00Z,00000200,00000000,0014.50,0011.69,0007.49,0001.97,0001.39,0001.09,0002.03,0002.30,0001.72,20.1,26.1,16.6,11.5,0688.6,31.1
2021-07-27T22:12:00Z,00000200,00000000,0016.04,0012.66,0008.53,0001.63,0001.58,0001.27,0002.46,0001.96,0001.92,20.1,26.1,16.6,11.5,0688.6,31.1
2021-07-27T22:13:00Z,00000200,00000000,0015.37,0012.22,0007.81,0001.61,0001.57,0001.33,0002.32,0002.55,0001.58,20.1,26.1,16.6,11.5,0688.6,31.1
2021-07-27T22:14:00Z,00000200,00000000,0015.86,0013.34,0009.11,0002.22,0001.95,0001.24,0002.01,0001.91,0002.09,20.1,26.1,16.6,11.5,0688.6,31.1
2021-07-27T22:15:00Z,00000200,00000000,0015.97,0013.23,0008.70,0001.55,0001.89,0001.28,0002.79,0002.42,0001.73,20.1,26.1,16.6,11.5,0688.6,31.1
2021-07-27T22:16:00Z,00000200,00000000,0015.90,0013.19,0009.03,0001.70,0001.57,0001.22,0002.26,0002.03,0001.42,20.1,26.1,16.7,11.6,0688.6,31.1
2021-07-27T22:17:00Z,00000200,00000000,0015.81,0013.07,0009.28,0001.83,0001.52,0001.45,0002.31,0002.21,0002.34,20.1,26.1,16.6,11.6,0688.6,31.1
2021-07-27T22:18:00Z,00000200,00000000,0017.53,0014.25,0009.71,0001.63,0001.61,0001.57,0002.95,0002.53,0001.79,20.1,26.1,16.6,11.6,0688.6,31.1
2021-07-27T22:19:00Z,00000200,00000000,0017.48,0013.96,0009.82,0002.06,0001.83,0001.12,0002.76,0002.33,0002.39,20.1,26.1,16.7,11.6,0688.6,31.1
2021-07-27T22:20:00Z,00000200,00000000,0018.03,0014.58,0009.43,0001.94,0001.91,0001.14,0002.42,0002.55,0001.61,20.1,26.1,16.8,11.6,0688.6,31.1
2021-07-27T22:21:00Z,00000200,00000000,0018.22,0014.37,0009.91,0002.27,0001.58,0001.50,0002.67,0002.39,0001.87,20.1,26.1,16.7,11.6,0688.6,31.1
2021-07-27T22:22:00Z,00000200,00000000,0015.20,0013.57,0008.88,0002.32,0001.86,0001.14,0001.84,0002.14,0001.72,20.1,26.1,16.5,11.5,0688.5,31.1
2021-07-27T22:23:00Z,00000200,00000000,0014.51,0011.73,0008.76,0002.29,0001.56,0001.09,0002.56,0002.11,0001.81,20.1,26.1,16.4,11.4,0688.5,31.1
2021-07-27T22:24:00Z,00000200,00000000,0016.07,0013.18,0008.57,0002.45,0001.55,0000.85,0002.65,0002.22,0001.64,20.1,26.1,16.5,11.4,0688.6,31.1
2021-07-27T22:25:00Z,00000200,00000000,0015.36,0012.69,0009.10,0002.18,0001.86,0001.04,0002.05,0002.14,0002.09,20.1,26.1,16.3,11.3,0688.6,31.1
2021-07-27T22:26:00Z,00000200,00000000,0017.63,0014.11,0009.14,0002.65,0001.96,0001.21,0002.23,0002.44,0001.62,20.1,26.1,16.5,11.5,0688.6,31.2
2021-07-27T22:27:00Z,00000200,00000000,0016.17,0013.57,0009.32,0002.03,0001.67,0001.26,0003.31,0002.47,0002.05,20.1,26.1,16.5,11.5,0688.6,31.1
2021-07-27T22:28:00Z,00000200,00000000,0018.04,0014.67,0009.48,0002.11,0001.95,0001.61,0002.22,0002.57,0001.98,20.1,26.1,16.6,11.6,0688.6,31.2
2021-07-27T22:29:00Z,00000200,00000000,0017.35,0013.62,0009.03,0001.83,0001.84,0001.12,0002.62,0002.18,0001.95,20.1,26.1,16.6,11.5,0688.6,31.2
2021-07-27T22:30:00Z,00000200,00000000,0016.66,0012.69,0008.54,0001.56,0001.60,0001.28,0002.16,0002.25,0001.97,20.1,26.1,16.6,11.5,0688.6,31.1
2021-07-27T22:31:00Z,00000200,00000000,0015.31,0012.08,0008.19,0001.61,0001.28,0000.98,0001.91,0001.72,0001.39,20.1,26.1,16.4,11.4,0688.6,31.1
2021-07-27T22:32:00Z,00000200,00000000,0015.74,0011.99,0008.54,0002.11,0001.28,0001.31,0002.69,0002.18,0001.85,20.1,26.1,16.3,11.4,0688.6,31.1
2021-07-27T22:33:00Z,00000200,00000000,0015.64,0012.45,0008.27,0001.57,0001.28,0000.89,0002.06,0002.35,0001.39,20.1,26.1,16.5,11.4,0688.6,31.1
2021-07-27T22:34:00Z,00000200,00000000,0015.99,0012.46,0008.37,0001.55,0001.82,0001.20,0002.09,0001.82,0001.89,20.1,26.1,16.4,11.4,0688.5,31.1
2021-07-27T22:35:00Z,00000200,00000000,0014.86,0012.64,0008.16,0001.42,0001.62,0000.82,0002.48,0001.78,0001.73,20.1,26.1,16.4,11.4,0688.6,31.1
2021-07-27T22:36:00Z,00000200,00000000,0015.25,0012.39,0008.35,0001.66,0001.66,0001.13,0002.38,0002.84,0001.86,20.1,26.0,16.4,11.4,0688.6,31.1
2021-07-27T22:37:00Z,00000200,00000000,0015.38,0012.44,0008.64,0001.63,0001.66,0001.13,0002.55,0002.06,0001.76,20.1,26.1,16.5,11.5,0688.5,31.1
2021-07-27T22:38:00Z,00000200,00000000,0016.87,0012.44,0008.25,0001.98,0001.78,0001.02,0002.42,0002.01,0001.92,20.1,26.1,16.6,11.5,0688.6,31.1
2021-07-27T22:39:00Z,00000200,00000000,0015.95,0013.13,0009.44,0001.53,0001.68,0001.45,0002.26,0002.39,0001.98,20.1,26.1,16.6,11.6,0688.5,31.1
2021-07-27T22:40:00Z,00000200,00000000,0014.87,0011.74,0007.16,0001.92,0001.38,0000.87,0002.20,0002.22,0001.37,20.1,26.1,16.7,11.6,0688.6,31.1
2021-07-27T22:41:00Z,00000200,00000000,0014.18,0011.40,0007.58,0001.97,0001.67,0000.70,0002.05,0001.86,0001.85,20.1,26.0,16.6,11.6,0688.6,31.1
2021-07-27T22:42:00Z,00000200,00000000,0013.51,0010.37,0006.62,0001.86,0001.34,0000.96,0002.19,0001.75,0001.31,20.1,26.1,16.7,11.6,0688.5,31.1
2021-07-27T22:43:00Z,00000200,00000000,0013.02,0009.69,0006.29,0001.09,0001.13,0000.90,0001.66,0001.84,0001.52,20.1,26.0,16.7,11.6,0688.5,31.1
2021-07-27T22:44:00Z,00000200,00000000,0012.88,0009.74,0005.46,0001.50,0001.10,0000.79,0001.96,0001.67,0000.95,20.1,26.0,16.7,11.6,0688.5,31.1
2021-07-27T22:45:00Z,00000200,00000000,0011.15,0008.75,0005.07,0000.67,0001.32,0000.64,0001.58,0001.22,0001.52,20.1,26.1,16.7,11.6,0688.5,31.1
2021-07-27T22:46:00Z,00000200,00000000,0014.58,0010.89,0007.10,0001.51,0001.42,0001.15,0002.21,0001.88,0001.50,20.1,26.1,16.7,11.6,0688.5,31.1
2021-07-27T22:47:00Z,00000200,00000000,0016.86,0012.68,0008.33,0002.27,0001.29,0001.16,0001.66,0002.31,0001.87,20.1,26.1,16.8,11.7,0688.5,31.2
2021-07-27T22:48:00Z,00000200,00000000,0008.74,0007.19,0004.27,0001.70,0001.06,0000.73,0001.97,0001.48,0000.83,20.1,26.0,16.8,11.7,0688.5,31.2
2021-07-27T22:49:00Z,00000200,00000000,0010.58,0007.95,0005.11,0000.87,0001.31,0000.66,0001.16,0000.88,0001.04,20.1,26.0,16.7,11.6,0688.5,31.1
2021-07-27T22:50:00Z,00000200,00000000,0014.78,0011.90,0007.69,0001.74,0001.66,0000.92,0002.40,0002.28,0001.62,20.1,26.0,16.7,11.6,0688.6,31.1
2021-07-27T22:51:00Z,00000200,00000000,0018.21,0013.73,0010.11,0002.27,0001.68,0001.45,0002.97,0002.74,0001.96,20.1,26.0,16.7,11.6,0688.6,31.1
2021-07-27T22:52:00Z,00000200,00000000,0015.04,0012.19,0007.89,0002.03,0001.65,0001.01,0001.78,0001.99,0001.76,20.1,26.1,16.8,11.7,0688.5,31.1
2021-07-27T22:53:00Z,00000200,00000000,0013.92,0011.22,0007.27,0001.93,0001.40,0001.38,0002.09,0001.99,0001.84,20.1,26.0,16.7,11.6,0688.5,31.1
2021-07-27T22:54:00Z,00000200,00000000,0014.95,0011.53,0007.12,0001.79,0001.48,0000.81,0002.12,0001.59,0001.24,20.1,26.0,16.7,11.6,0688.6,31.1
2021-07-27T22:55:00Z,00000200,00000000,0010.14,0007.94,0004.88,0001.38,0001.16,0000.60,0001.67,0001.56,0001.06,20.1,26.0,16.7,11.6,0688.6,31.1
2021-07-27T22:56:00Z,00000200,00000000,0008.33,0005.67,0003.82,0000.56,0000.75,0000.71,0001.06,0000.67,0001.24,20.1,26.0,16.8,11.7,0688.6,31.1
2021-07-27T22:57:00Z,00000200,40000000,,,,,,,0000.30,0000.57,-000.19,20.1,26.1,16.7,11.6,0688.5,31.1
2021-07-27T22:58:00Z,00000200,60000000,,,,,,,-000.17,-000.31,0000.11,19.9,26.2,17.0,11.6,0687.5,31.1
2021-07-27T22:59:00Z,00000200,20000000,,,,,,,-000.14,-000.03,-000.02,19.9,26.3,17.0,11.5,0687.5,31.1
